.
WxDataArchive / Data Records for 2009-09-04
2009-09-03 September 2009 2009-09-05

Data Records for Friday, 04 September 2009

Time	Temp	Chill	HIndex	Humid	Dewpt	 Wind 	HiWind	WindDir	Rain 	Barom 
-----	----	-----	------	-----	-----	------	------	-------	-----	----- 
00:00	58.4	58.4	58.4	90	55.5	0	0	---	0.00	30.117 
00:05	58.3	58.3	58.3	90	55.4	0	0	---	0.00	30.117 
00:10	58.1	58.1	58.1	90	55.2	0	0	---	0.00	30.117 
00:15	58.0	58.0	58.0	90	55.1	0	0	---	0.00	30.117 
00:20	57.8	57.8	57.8	91	55.2	0	0	---	0.00	30.117 
00:25	57.8	57.8	57.8	91	55.2	0	0	---	0.00	30.117 
00:30	57.6	57.6	57.6	91	55.0	0	0	---	0.00	30.114 
00:35	57.5	57.5	57.5	91	54.9	0	0	---	0.00	30.114 
00:40	57.5	57.5	57.5	91	54.9	0	0	---	0.00	30.114 
00:45	57.3	57.3	57.3	92	55.0	0	0	---	0.00	30.114 
00:50	57.2	57.2	57.2	92	54.9	0	0	---	0.00	30.114 
00:55	57.0	57.0	57.0	92	54.7	0	0	---	0.00	30.114 
01:00	57.0	57.0	57.0	92	54.7	0	0	---	0.00	30.116 
01:05	56.9	56.9	56.9	92	54.6	0	0	---	0.00	30.116 
01:10	56.7	56.7	56.7	92	54.4	0	0	---	0.00	30.116 
01:15	56.6	56.6	56.6	92	54.3	0	0	---	0.00	30.117 
01:20	56.5	56.5	56.5	92	54.2	0	0	---	0.00	30.117 
01:25	56.5	56.5	56.5	92	54.2	0	0	---	0.00	30.117 
01:30	56.3	56.3	56.3	93	54.3	0	0	---	0.00	30.117 
01:35	56.3	56.3	56.3	93	54.3	0	0	---	0.00	30.117 
01:40	56.2	56.2	56.2	93	54.2	0	0	---	0.00	30.117 
01:45	56.0	56.0	56.0	93	54.0	0	0	---	0.00	30.119 
01:50	56.0	56.0	56.0	93	54.0	0	0	---	0.00	30.119 
01:55	55.9	55.9	55.9	93	53.9	0	0	---	0.00	30.119 
02:00	55.7	55.7	55.7	93	53.7	0	0	---	0.00	30.119 
02:05	55.7	55.7	55.7	93	53.7	0	0	---	0.00	30.119 
02:10	55.7	55.7	55.7	93	53.7	0	0	---	0.00	30.119 
02:15	55.6	55.6	55.6	94	53.9	0	0	---	0.00	30.120 
02:20	55.4	55.4	55.4	94	53.7	0	0	---	0.00	30.120 
02:25	55.4	55.4	55.4	94	53.7	0	0	---	0.00	30.120 
02:30	55.3	55.3	55.3	94	53.6	0	0	---	0.00	30.123 
02:35	55.3	55.3	55.3	94	53.6	0	0	---	0.00	30.123 
02:40	55.1	55.1	55.1	94	53.4	0	0	---	0.00	30.123 
02:45	55.1	55.1	55.1	94	53.4	0	0	---	0.00	30.123 
02:50	55.0	55.0	55.0	94	53.3	0	0	---	0.00	30.123 
02:55	54.8	54.8	54.8	94	53.1	0	0	---	0.00	30.123 
03:00	54.8	54.8	54.8	94	53.1	0	0	---	0.00	30.126 
03:05	54.8	54.8	54.8	94	53.1	0	0	---	0.00	30.126 
03:10	54.7	54.7	54.7	94	53.0	0	0	---	0.00	30.126 
03:15	54.7	54.7	54.7	94	53.0	0	0	---	0.00	30.122 
03:20	54.5	54.5	54.5	94	52.8	0	0	---	0.00	30.122 
03:25	54.4	54.4	54.4	95	53.0	0	0	---	0.00	30.122 
03:30	54.4	54.4	54.4	95	53.0	0	0	---	0.00	30.122 
03:35	54.4	54.4	54.4	95	53.0	0	0	---	0.00	30.122 
03:40	54.2	54.2	54.2	95	52.8	0	0	---	0.00	30.122 
03:45	54.2	54.2	54.2	95	52.8	0	0	---	0.00	30.121 
03:50	54.1	54.1	54.1	95	52.7	0	0	---	0.00	30.121 
03:55	54.1	54.1	54.1	95	52.7	0	0	---	0.00	30.121 
04:00	53.9	53.9	53.9	95	52.5	0	0	---	0.00	30.119 
04:05	53.9	53.9	53.9	95	52.5	0	0	---	0.00	30.119 
04:10	53.9	53.9	53.9	95	52.5	0	0	---	0.00	30.119 
04:15	53.9	53.9	53.9	95	52.5	0	0	---	0.00	30.119 
04:20	53.9	53.9	53.9	95	52.5	0	0	---	0.00	30.119 
04:25	53.9	53.9	53.9	95	52.5	0	0	---	0.00	30.119 
04:30	53.9	53.9	53.9	95	52.5	0	0	---	0.00	30.119 
04:35	53.9	53.9	53.9	95	52.5	0	0	---	0.00	30.119 
04:40	53.8	53.8	53.8	95	52.4	0	0	---	0.00	30.119 
04:45	53.8	53.8	53.8	96	52.7	0	0	---	0.00	30.120 
04:50	53.8	53.8	53.8	96	52.7	0	0	---	0.00	30.120 
04:55	53.8	53.8	53.8	96	52.7	0	0	---	0.00	30.120 
05:00	53.8	53.8	53.8	96	52.7	0	0	---	0.00	30.120 
05:05	53.8	53.8	53.8	96	52.7	0	0	---	0.00	30.120 
05:10	53.6	53.6	53.6	96	52.5	0	0	---	0.00	30.120 
05:15	53.6	53.6	53.6	96	52.5	0	0	---	0.00	30.121 
05:20	53.5	53.5	53.5	96	52.4	0	0	---	0.00	30.121 
05:25	53.5	53.5	53.5	96	52.4	0	0	---	0.00	30.121 
05:30	53.5	53.5	53.5	96	52.4	0	0	---	0.00	30.122 
05:35	53.3	53.3	53.3	96	52.2	0	0	---	0.00	30.122 
05:40	53.3	53.3	53.3	96	52.2	0	0	---	0.00	30.122 
05:45	53.2	53.2	53.2	96	52.1	0	0	---	0.00	30.124 
05:50	53.2	53.2	53.2	96	52.1	0	0	---	0.00	30.124 
05:55	53.2	53.2	53.2	96	52.1	0	0	---	0.00	30.124 
06:00	53.1	53.1	53.1	96	52.0	0	0	---	0.00	30.123 
06:05	53.1	53.1	53.1	96	52.0	0	0	---	0.00	30.123 
06:10	52.9	52.9	52.9	96	51.8	0	0	---	0.00	30.123 
06:15	52.9	52.9	52.9	96	51.8	0	0	---	0.00	30.126 
06:20	52.8	52.8	52.8	96	51.7	0	0	---	0.00	30.126 
06:25	52.8	52.8	52.8	96	51.7	0	0	---	0.00	30.126 
06:30	52.8	52.8	52.8	96	51.7	0	0	---	0.00	30.128 
06:35	52.6	52.6	52.6	96	51.5	0	0	---	0.00	30.128 
06:40	52.6	52.6	52.6	96	51.5	0	0	---	0.00	30.128 
06:45	52.6	52.6	52.6	96	51.5	0	0	---	0.00	30.134 
06:50	52.6	52.6	52.6	96	51.5	0	0	---	0.00	30.134 
06:55	52.6	52.6	52.6	96	51.5	0	0	---	0.00	30.134 
07:00	52.5	52.5	52.5	96	51.4	0	0	---	0.00	30.135 
07:05	52.5	52.5	52.5	96	51.4	0	0	---	0.00	30.135 
07:10	52.5	52.5	52.5	96	51.4	0	0	---	0.00	30.135 
07:15	52.5	52.5	52.5	96	51.4	0	0	---	0.00	30.143 
07:20	52.5	52.5	52.5	96	51.4	0	0	---	0.00	30.143 
07:25	52.5	52.5	52.5	96	51.4	0	0	---	0.00	30.143 
07:30	52.6	52.6	52.6	96	51.5	0	0	---	0.00	30.144 
07:35	52.6	52.6	52.6	96	51.5	0	0	---	0.00	30.144 
07:40	52.8	52.8	52.8	96	51.7	0	0	---	0.00	30.144 
07:45	52.8	52.8	52.8	96	51.7	0	0	---	0.00	30.148 
07:50	52.9	52.9	52.9	96	51.8	0	0	---	0.00	30.148 
07:55	52.9	52.9	52.9	96	51.8	0	0	---	0.00	30.148 
08:00	53.1	53.1	53.1	96	52.0	0	0	---	0.00	30.154 
08:05	53.3	53.3	53.3	96	52.2	0	0	---	0.00	30.154 
08:10	53.6	53.6	53.6	96	52.5	0	0	---	0.00	30.154 
08:15	53.9	53.9	53.9	97	53.1	0	0	---	0.00	30.160 
08:20	54.4	54.4	54.4	97	53.6	0	0	---	0.00	30.160 
08:25	54.7	54.7	54.7	97	53.9	0	0	---	0.00	30.160 
08:30	55.1	55.1	55.1	97	54.3	0	0	---	0.00	30.154 
08:35	55.6	55.6	55.6	97	54.8	0	0	---	0.00	30.154 
08:40	56.2	56.2	56.2	97	55.4	0	0	---	0.00	30.154 
08:45	56.7	56.7	56.7	97	55.9	0	0	---	0.00	30.156 
08:50	57.3	57.3	57.3	97	56.5	0	0	---	0.00	30.156 
08:55	57.6	57.6	57.6	97	56.8	0	1	112	0.00	30.156 
09:00	58.0	58.0	58.0	97	57.2	0	0	---	0.00	30.159 
09:05	58.3	58.3	58.3	97	57.5	0	0	---	0.00	30.159 
09:10	58.7	58.7	58.7	97	57.8	0	1	112	0.00	30.159 
09:15	59.2	59.2	59.2	97	58.3	0	0	---	0.00	30.161 
09:20	59.6	59.6	59.6	96	58.5	0	1	112	0.00	30.161 
09:25	60.1	60.1	60.1	96	59.0	0	2	112	0.00	30.161 
09:30	60.5	60.5	60.5	96	59.4	0	2	112	0.00	30.159 
09:35	61.0	61.0	61.0	95	59.6	0	3	112	0.00	30.159 
09:40	61.5	61.5	61.5	93	59.5	1	3	112	0.00	30.159 
09:45	62.0	62.0	62.0	92	59.6	1	2	112	0.00	30.155 
09:50	62.6	62.6	62.6	90	59.6	1	3	112	0.00	30.155 
09:55	63.1	63.1	63.1	88	59.5	1	3	112	0.00	30.155 
10:00	63.4	63.4	63.4	86	59.1	1	3	112	0.00	30.157 
10:05	64.0	64.0	64.0	84	59.1	1	3	112	0.00	30.157 
10:10	65.0	65.0	65.0	83	59.7	1	3	112	0.00	30.157 
10:15	65.8	65.8	65.8	78	58.7	1	4	90	0.00	30.159 
10:20	66.6	66.6	66.6	77	59.2	1	4	90	0.00	30.159 
10:25	67.4	67.4	67.4	74	58.8	1	2	90	0.00	30.159 
10:30	67.9	67.9	67.9	73	58.9	1	4	90	0.00	30.165 
10:35	68.6	68.6	68.6	72	59.2	1	3	90	0.00	30.165 
10:40	69.1	69.1	69.1	69	58.5	1	5	90	0.00	30.165 
10:45	69.1	69.1	69.1	70	58.9	1	5	90	0.00	30.168 
10:50	69.6	69.6	69.6	69	59.0	1	4	90	0.00	30.168 
10:55	69.9	69.9	69.9	71	60.1	0	2	90	0.00	30.168 
11:00	70.4	70.4	70.4	65	58.1	1	3	90	0.00	30.167 
11:05	70.9	70.9	70.9	68	59.8	1	5	112	0.00	30.167 
11:10	71.5	71.5	71.5	64	58.7	0	2	112	0.00	30.167 
11:15	71.8	71.8	71.8	62	58.1	1	3	112	0.00	30.168 
11:20	72.3	72.3	72.3	63	59.0	0	2	112	0.00	30.168 
11:25	72.7	72.7	72.7	60	58.0	1	4	112	0.00	30.168 
11:30	72.8	72.8	72.8	61	58.6	1	3	112	0.00	30.168 
11:35	72.8	72.8	72.8	59	57.6	2	5	90	0.00	30.168 
11:40	72.5	72.5	72.5	61	58.3	1	2	90	0.00	30.168 
11:45	72.7	72.7	72.7	62	58.9	1	4	90	0.00	30.168 
11:50	73.3	73.3	73.3	60	58.6	0	2	90	0.00	30.168 
11:55	73.7	73.7	73.7	55	56.5	1	4	90	0.00	30.168 
12:00	73.9	73.9	73.9	55	56.7	1	4	90	0.00	30.166 
12:05	74.2	74.2	74.2	58	58.5	1	4	112	0.00	30.166 
12:10	74.4	74.4	74.4	58	58.6	1	5	135	0.00	30.166 
12:15	74.4	74.4	74.4	54	56.7	1	6	90	0.00	30.167 
12:20	74.2	74.2	74.2	56	57.5	2	6	90	0.00	30.167 
12:25	74.2	74.2	74.2	55	57.0	0	2	90	0.00	30.167 
12:30	74.0	74.0	74.0	57	57.8	2	5	90	0.00	30.170 
12:35	74.0	74.0	74.0	57	57.8	1	5	112	0.00	30.170 
12:40	74.6	74.6	74.6	58	58.8	1	2	112	0.00	30.170 
12:45	74.7	74.7	74.7	55	57.4	1	4	112	0.00	30.166 
12:50	75.1	75.1	77.6	54	57.3	1	4	90	0.00	30.166 
12:55	74.7	74.7	74.7	54	56.9	1	4	90	0.00	30.166 
13:00	74.9	74.9	74.9	55	57.6	0	1	90	0.00	30.165 
13:05	75.3	75.3	77.7	53	57.0	1	5	90	0.00	30.165 
13:10	75.6	75.6	77.8	56	58.8	0	1	112	0.00	30.165 
13:15	75.4	75.4	77.8	54	57.6	1	5	90	0.00	30.162 
13:20	75.6	75.6	77.8	57	59.3	1	4	112	0.00	30.162 
13:25	75.6	75.6	77.8	55	58.3	1	3	112	0.00	30.162 
13:30	75.6	75.6	77.9	52	56.7	1	4	112	0.00	30.158 
13:35	75.4	75.4	77.8	52	56.5	1	4	112	0.00	30.158 
13:40	75.1	75.1	77.7	51	55.7	1	4	112	0.00	30.158 
13:45	75.1	75.1	77.6	52	56.3	1	4	112	0.00	30.153 
13:50	75.1	75.1	77.7	51	55.7	1	3	112	0.00	30.153 
13:55	75.4	75.4	77.8	50	55.4	1	3	112	0.00	30.153 
14:00	74.9	74.9	74.9	50	55.0	1	4	112	0.00	30.151 
14:05	74.7	74.7	74.7	51	55.4	0	1	112	0.00	30.151 
14:10	75.1	75.1	77.6	53	56.8	1	4	112	0.00	30.151 
14:15	75.6	75.6	77.9	50	55.6	1	4	22	0.00	30.148 
14:20	75.8	75.8	78.0	50	55.8	0	1	90	0.00	30.148 
14:25	76.5	76.5	78.3	51	57.0	2	6	90	0.00	30.148 
14:30	76.3	76.3	78.2	51	56.8	2	5	90	0.00	30.144 
14:35	76.1	76.1	78.1	50	56.1	2	6	90	0.00	30.144 
14:40	76.0	76.0	78.1	50	56.0	2	5	112	0.00	30.144 
14:45	76.3	76.3	78.2	53	57.9	1	4	112	0.00	30.142 
14:50	76.5	76.5	78.2	46	54.2	1	3	112	0.00	30.142 
14:55	76.7	76.7	78.3	45	53.7	1	3	112	0.00	30.142 
15:00	77.0	77.0	78.6	49	56.4	1	6	112	0.00	30.138 
15:05	77.2	77.2	78.7	49	56.5	0	3	90	0.00	30.138 
15:10	76.5	76.5	78.3	49	55.9	0	2	90	0.00	30.138 
15:15	76.0	76.0	78.1	51	56.5	0	1	90	0.00	30.137 
15:20	76.5	76.5	78.3	47	54.7	0	2	90	0.00	30.137 
15:25	76.8	76.8	78.4	48	55.6	0	1	90	0.00	30.137 
15:30	76.8	76.8	78.3	45	53.8	2	5	90	0.00	30.134 
15:35	76.8	76.8	78.3	44	53.2	2	6	90	0.00	30.134 
15:40	77.0	77.0	78.5	48	55.8	1	4	90	0.00	30.134 
15:45	77.0	77.0	78.4	45	54.0	1	3	90	0.00	30.134 
15:50	77.2	77.2	78.6	46	54.8	0	2	90	0.00	30.134 
15:55	77.4	77.4	78.7	47	55.6	1	3	90	0.00	30.134 
16:00	77.4	77.4	78.6	45	54.4	1	3	90	0.00	30.128 
16:05	77.6	77.6	78.8	46	55.2	1	3	90	0.00	30.128 
16:10	77.7	77.7	78.7	43	53.4	0	3	90	0.00	30.128 
16:15	77.4	77.4	78.6	45	54.4	0	3	90	0.00	30.132 
16:20	77.6	77.6	78.8	46	55.2	1	3	90	0.00	30.132 
16:25	77.6	77.6	78.9	48	56.3	0	2	90	0.00	30.132 
16:30	77.7	77.7	78.8	45	54.6	0	2	90	0.00	30.126 
16:35	77.7	77.7	78.6	40	51.4	1	3	90	0.00	30.126 
16:40	77.4	77.4	78.6	45	54.4	1	4	90	0.00	30.126 
16:45	77.2	77.2	78.4	42	52.3	0	4	90	0.00	30.125 
16:50	77.0	77.0	78.3	41	51.5	1	4	90	0.00	30.125 
16:55	76.8	76.8	78.2	41	51.3	2	4	90	0.00	30.125 
17:00	76.7	76.7	78.2	43	52.5	1	5	112	0.00	30.128 
17:05	76.3	76.3	78.0	43	52.1	2	4	112	0.00	30.128 
17:10	76.1	76.1	77.9	41	50.7	1	3	90	0.00	30.128 
17:15	76.3	76.3	77.9	40	50.2	0	1	90	0.00	30.127 
17:20	76.5	76.5	78.1	43	52.3	0	3	90	0.00	30.127 
17:25	76.5	76.5	78.1	43	52.3	1	3	90	0.00	30.127 
17:30	76.3	76.3	77.9	40	50.2	0	1	90	0.00	30.125 
17:35	76.3	76.3	78.1	44	52.8	0	2	90	0.00	30.125 
17:40	76.1	76.1	78.0	43	52.0	1	4	90	0.00	30.125 
17:45	76.0	76.0	77.9	43	51.9	0	2	90	0.00	30.128 
17:50	75.8	75.8	77.8	41	50.4	1	2	90	0.00	30.128 
17:55	75.8	75.8	77.9	44	52.3	0	3	90	0.00	30.128 
18:00	75.8	75.8	77.9	44	52.3	0	2	90	0.00	30.127 
18:05	75.8	75.8	77.9	44	52.3	0	3	90	0.00	30.127 
18:10	75.8	75.8	77.8	43	51.7	1	3	90	0.00	30.127 
18:15	75.6	75.6	77.7	42	50.9	0	2	90	0.00	30.130 
18:20	75.4	75.4	77.8	46	53.2	0	3	90	0.00	30.130 
18:25	75.3	75.3	77.7	46	53.1	1	3	90	0.00	30.130 
18:30	75.1	75.1	77.7	47	53.5	0	2	90	0.00	30.128 
18:35	74.9	74.9	74.9	48	53.9	0	0	---	0.00	30.128 
18:40	74.6	74.6	74.6	45	51.8	0	1	90	0.00	30.128 
18:45	74.6	74.6	74.6	48	53.6	0	1	90	0.00	30.130 
18:50	74.4	74.4	74.4	49	54.0	0	1	90	0.00	30.130 
18:55	74.2	74.2	74.2	49	53.8	0	2	90	0.00	30.130 
19:00	74.0	74.0	74.0	50	54.2	0	1	90	0.00	30.132 
19:05	73.9	73.9	73.9	50	54.1	0	0	---	0.00	30.132 
19:10	73.5	73.5	73.5	50	53.7	0	0	---	0.00	30.132 
19:15	73.3	73.3	73.3	50	53.5	0	1	90	0.00	30.129 
19:20	73.2	73.2	73.2	52	54.5	0	0	---	0.00	30.129 
19:25	72.8	72.8	72.8	52	54.1	0	0	---	0.00	30.129 
19:30	72.7	72.7	72.7	51	53.5	0	0	---	0.00	30.131 
19:35	72.3	72.3	72.3	52	53.7	0	0	---	0.00	30.131 
19:40	72.1	72.1	72.1	53	54.0	0	0	---	0.00	30.131 
19:45	71.8	71.8	71.8	53	53.7	0	0	---	0.00	30.129 
19:50	71.5	71.5	71.5	54	54.0	0	0	---	0.00	30.129 
19:55	71.1	71.1	71.1	54	53.6	0	0	---	0.00	30.129 
20:00	70.8	70.8	70.8	56	54.3	0	0	---	0.00	30.129 
20:05	70.3	70.3	70.3	58	54.8	0	0	---	0.00	30.129 
20:10	69.8	69.8	69.8	59	54.8	0	0	---	0.00	30.129 
20:15	69.4	69.4	69.4	60	54.9	0	0	---	0.00	30.126 
20:20	68.9	68.9	68.9	62	55.3	0	0	---	0.00	30.126 
20:25	68.4	68.4	68.4	62	54.9	0	0	---	0.00	30.126 
20:30	67.9	67.9	67.9	63	54.8	0	0	---	0.00	30.130 
20:35	67.4	67.4	67.4	65	55.2	0	0	---	0.00	30.130 
20:40	66.9	66.9	66.9	67	55.6	0	0	---	0.00	30.130 
20:45	66.4	66.4	66.4	67	55.1	0	0	---	0.00	30.139 
20:50	66.0	66.0	66.0	69	55.5	0	0	---	0.00	30.139 
20:55	65.6	65.6	65.6	70	55.5	0	0	---	0.00	30.139 
21:00	65.3	65.3	65.3	71	55.6	0	0	---	0.00	30.144 
21:05	65.0	65.0	65.0	72	55.7	0	0	---	0.00	30.144 
21:10	64.7	64.7	64.7	73	55.8	0	0	---	0.00	30.144 
21:15	64.3	64.3	64.3	74	55.8	0	0	---	0.00	30.140 
21:20	64.0	64.0	64.0	75	55.9	0	0	---	0.00	30.140 
21:25	63.7	63.7	63.7	76	56.0	0	0	---	0.00	30.140 
21:30	63.5	63.5	63.5	77	56.2	0	0	---	0.00	30.142 
21:35	63.2	63.2	63.2	78	56.2	0	0	---	0.00	30.142 
21:40	63.1	63.1	63.1	79	56.5	0	0	---	0.00	30.142 
21:45	62.7	62.7	62.7	80	56.4	0	0	---	0.00	30.148 
21:50	62.6	62.6	62.6	80	56.3	0	0	---	0.00	30.148 
21:55	62.3	62.3	62.3	81	56.4	0	0	---	0.00	30.148 
22:00	62.1	62.1	62.1	81	56.2	0	0	---	0.00	30.153 
22:05	62.0	62.0	62.0	82	56.4	0	0	---	0.00	30.153 
22:10	61.8	61.8	61.8	83	56.6	0	0	---	0.00	30.153 
22:15	61.5	61.5	61.5	83	56.3	0	0	---	0.00	30.149 
22:20	61.3	61.3	61.3	84	56.4	0	0	---	0.00	30.149 
22:25	61.2	61.2	61.2	84	56.3	0	0	---	0.00	30.149 
22:30	60.9	60.9	60.9	84	56.0	0	0	---	0.00	30.152 
22:35	60.7	60.7	60.7	85	56.2	0	0	---	0.00	30.152 
22:40	60.5	60.5	60.5	85	56.0	0	0	---	0.00	30.152 
22:45	60.4	60.4	60.4	85	55.9	0	0	---	0.00	30.154 
22:50	60.2	60.2	60.2	85	55.7	0	0	---	0.00	30.154 
22:55	60.1	60.1	60.1	86	55.9	0	0	---	0.00	30.154 
23:00	59.9	59.9	59.9	86	55.7	0	0	---	0.00	30.156 
23:05	59.8	59.8	59.8	86	55.6	0	0	---	0.00	30.156 
23:10	59.6	59.6	59.6	86	55.4	0	0	---	0.00	30.156 
23:15	59.5	59.5	59.5	87	55.6	0	0	---	0.00	30.155 
23:20	59.3	59.3	59.3	87	55.4	0	0	---	0.00	30.155 
23:25	59.2	59.2	59.2	87	55.3	0	0	---	0.00	30.155 
23:30	59.0	59.0	59.0	88	55.4	0	0	---	0.00	30.161 
23:35	59.0	59.0	59.0	88	55.4	0	0	---	0.00	30.161 
23:40	58.9	58.9	58.9	88	55.3	0	0	---	0.00	30.161 
23:45	58.7	58.7	58.7	88	55.2	0	0	---	0.00	30.158 
23:50	58.7	58.7	58.7	89	55.5	0	0	---	0.00	30.158 
23:55	58.6	58.6	58.6	89	55.4	0	0	---	0.00	30.158 

CoCoRaHS
IN-AL-39
A2 Web Hosting
Creative Commons License
GoDaddy
search engine by freefind advanced

loaded 2018-11-17 23:00:36 • last modified 2010-11-18 10:43:29
Privacy PolicyDisclaimer
• wx.awcolley.com is powered by PmWiki v.2002016 •
• all content (unless otherwise noted) © 2018 A W Colley